Terminal Aerodrome Forecast
Issued by NWS Charleston, WV

Current Version | Previous Version | Text Only | Print | Product List | Glossary Off
Versions: 1 2 3 4 5 6 7 8 9 10 11 12 13 14 15 16 17 18 19 20 21 22 23 24

723
FTUS41 KRLX 300303 AAA
TAFHTS
TAF AMD
KHTS 300303Z 3003/3024 18005KT P6SM SCT140
     FM300800 19006KT P6SM SHRA VCTS OVC040CB
     FM301400 22008G15KT 3SM SHRA OVC030
     FM301700 24007G18KT 3SM SHRA OVC025
     FM302000 25008G21KT 6SM BR BKN030
     FM302200 25008G16KT P6SM BKN035=

USA.gov is the U.S. government's official web portal to all federal, state and local government web resources and services.